Regional Weather Roundup
Issued by NWS Northern Indiana

Home | Current Version | Previous Version | Graphics & Text | Print | Product List | Glossary On
Versions: 1 2 3 4 5 6 7 8 9 10 11 12 13 14 15 16 17 18 19 20 21 22 23 24 25 26 27 28 29 30 31 32 33 34 35 36 37 38 39 40 41 42 43 44 45 46 47 48 49 50
000
ASUS43 KIWX 180700
RWRIWX

KIWX WEATHER ROUNDUP
NATIONAL WEATHER SERVICE NORTHERN INDIANA
300 AM EDT FRI APR 18 2014

NOTE: "FAIR" INDICATES FEW OR NO CLOUDS BELOW 12,000 FEET WITH NO
SIGNIFICANT WEATHER AND/OR OBSTRUCTIONS TO VISIBILITY.

* THESE STATIONS ARE NOT UNDER NWS QUALITY CONTROL. THEY ALSO MAY NOT
  REPORT WEATHER SUCH AS PRECIPITATION OR FOG.

INZ001>027-180800-
NORTHERN INDIANA

CITY           SKY/WX    TMP DP  RH WIND       PRES   REMARKS
GARY*          CLOUDY    48  41  77 CALM      30.25F
VALPARAISO     LGT RAIN  49  42  77 CALM      30.25F
SOUTH BEND     NOT AVBL
GOSHEN         CLOUDY    49  43  80 W5        30.24F
MONTICELLO*    CLOUDY    45  41  85 NW5       30.25S
ANGOLA*        CLOUDY    48  41  76 CALM      30.23F
FORT WAYNE     MOCLDY    45  35  68 SW6       30.25S
PERU/GRISSOM   CLOUDY    49  40  71 NW3       30.24S

$$
INZ028>050-180800-
CENTRAL INDIANA

CITY           SKY/WX    TMP DP  RH WIND       PRES   REMARKS
LAFAYETTE      CLOUDY    48  39  71 W3        30.25S
KOKOMO*        MOCLDY    45  36  70 CALM      30.25S
MUNCIE*        PTCLDY    47  35  63 S5        30.25S
INDIANAPOLIS   PTCLDY    44  36  73 CALM      30.25F

$$
MIZ043>046-050>051-056>058-064>065-071>073-077>080-180800-
SOUTHWEST LOWER MICHIGAN

CITY           SKY/WX    TMP DP  RH WIND       PRES   REMARKS
BATTLE CREEK   LGT RAIN  49  39  68 CALM      30.25S
BENTON HARBOR  CLOUDY    46  39  76 SE5       30.25F
COLDWATER*     LGT RAIN  47  42  81 NW6       30.24S
HILLSDALE*     CLOUDY    53  36  52 CALM      30.23S
HOLLAND        CLOUDY    44  38  79 CALM      30.26S
GRAND RAPIDS   CLOUDY    48  37  65 CALM      30.25S
KALAMAZOO      LGT RAIN  48  41  76 CALM      30.25F
STURGIS*       LGT RAIN  48  39  71 CALM      30.24S
THREE RIVERS*  DRIZZLE   47  42  81 NW3       30.26S

$$
OHZ001>008-015>018-024>025-180800-
NORTHWEST OHIO

CITY           SKY/WX    TMP DP  RH WIND       PRES   REMARKS
DEFIANCE       CLOUDY    49  36  61 SW5       30.24F
FINDLAY        PTCLDY    48  36  63 SW6       30.23F
TOLEDO EXPRESS CLOUDY    46  36  68 CALM      30.23F
TOLEDO METCALF MOCLDY    46  36  68 CALM      30.24F
LIMA           PTCLDY    48  35  60 W3        30.25S

$$
&&



USA.gov is the U.S. government's official web portal to all federal, state and local government web resources and services.